Notices

What's New in latest Release from April 7th, 2021:

- Updated Glossary, including Speed of Maximum Gust, and Total Hourly Precipitation

- Updated national and regional climate services offices contacts and prices information

- Addition of station inventory lists for 1981-2010, 1971-2000, and 1961-1990 Normals.

If you haven't already, please take our survey and provide feedback about our website: https://eccc.sondage-survey.ca/f/LanguageSelection.aspx?s=442ca660-fcf1-47c0-95a9-59707d6fd709

Hourly Data Report for April 25, 2017

MIRAMICHI RCS
NEW BRUNSWICK

47°00'34.000" N
65°27'54.000" W
33.00 m
8100989
71744
ACQ

Download Data

Hourly Data (April 2017)
Hourly Data Report for April 25, 2017
TIME
LST
Temp Definition
°C
Dew Point Definition
°C
Rel Hum Definition
%
Precip. Amount Definition
mm

Wind Dir Definition
10's deg

Wind Spd Definition
km/h
Visibility Definition
km
Stn Press Definition
kPa
Hmdx Definition


Wind Chill Definition


Weather Definition


00:00 0.2 -12.4 38 0.0 35 7   102.40     LegendNANA
01:00 -0.5 -13.2 38 0.0 32 5   102.44   -2 LegendNANA
02:00 -1.0 -13.2 39 0.0 36 3   102.46   -2 LegendNANA
03:00 -3.2 -10.9 55 0.0 0 1   102.52   -4 LegendNANA
04:00 -3.1 -10.8 55 0.0 23 2   102.64   -4 LegendNANA
05:00 -3.5 -9.7 62 0.0 36 4   102.63   -5 LegendNANA
06:00 -3.3 -8.5 67 0.0 36 2   102.72   -4 LegendNANA
07:00 -0.3 -10.6 45 0.0 34 3   102.84   -1 LegendNANA
08:00 1.1 -12.1 37 0.0 27 5   102.96     LegendNANA
09:00 3.2 -11.3 34 0.0 4 2   102.93     LegendNANA
10:00 4.2 -12.2 29 0.0 21 5   102.90     LegendNANA
11:00 5.4 -11.8 28 0.0 9 7   102.86     LegendNANA
12:00 7.2 -10.8 26 0.0 7 3   102.81     LegendNANA
13:00 8.8 -10.9 24 0.0 32 2   102.76     LegendNANA
14:00 10.1 -10.3 23 0.0 15 2   102.68     LegendNANA
15:00 11.0 -8.6 24 0.0 31 8   102.59     LegendNANA
16:00 10.1 -4.0 37 0.0 6 14   102.55     LegendNANA
17:00 8.6 -3.8 41 0.0 9 21   102.55     LegendNANA
18:00 8.2 -3.8 43 0.0 10 19   102.52     LegendNANA
19:00 5.8 -4.2 49 0.0 10 16   102.52     LegendNANA
20:00 4.7 -3.6 55 0.0 8 12   102.51     LegendNANA
21:00 4.2 -2.9 60 0.0 8 12   102.51     LegendNANA
22:00 4.1 -2.1 64 0.0 9 10   102.48     LegendNANA
23:00 4.5 -2.2 62 0.0 6 6   102.43     LegendNANA

Notes on Data Quality.

Legend

  • E = Estimated
  • M = Missing
  • NA = Not Available*
  • [empty] = Indicates an unobserved value
Date modified: